This is the latest recevied weather packets stored in our database for station/object DL5DI-H. If no packets are shown the sender has not sent any weather packets the latest 10 day(s).
| Time | Temp. | Humidity | Pressure | Rain* | Wind** | Luminosity | Snow |
|---|---|---|---|---|---|---|---|
| 1777199405 | 12.78° C | 65% | 1025.5 hPa | 0 mm | - | - | - |
| 1777198801 | 12.78° C | 65% | 1025.5 hPa | 0 mm | - | - | - |
| 1777198201 | 12.78° C | 66% | 1025.6 hPa | 0 mm | - | - | - |
| 1777197605 | 12.22° C | 66% | 1025.6 hPa | 0 mm | - | - | - |
| 1777197001 | 12.22° C | 66% | 1025.6 hPa | 0 mm | - | - | - |
| 1777196400 | 12.22° C | 67% | 1025.6 hPa | 0 mm | - | - | - |
| 1777195201 | 11.11° C | 69% | 1025.7 hPa | 0 mm | - | - | - |
| 1777194001 | 11.11° C | 70% | 1025.7 hPa | 0 mm | - | - | - |
| 1777193401 | 10.56° C | 70% | 1025.7 hPa | 0 mm | - | - | - |
| 1777192801 | 10.56° C | 71% | 1025.6 hPa | 0 mm | - | - | - |
| 1777192204 | 10.56° C | 71% | 1025.5 hPa | 0 mm | - | - | - |
| 1777191605 | 10.56° C | 71% | 1025.5 hPa | 0 mm | - | - | - |
| 1777191001 | 10.56° C | 72% | 1025.5 hPa | 0 mm | - | - | - |
| 1777190405 | 10.56° C | 72% | 1025.4 hPa | 0 mm | - | - | - |
| 1777189801 | 10° C | 72% | 1025.5 hPa | 0 mm | - | - | - |
| 1777189205 | 10° C | 73% | 1025.5 hPa | 0 mm | - | - | - |
| 1777188601 | 9.44° C | 74% | 1025.4 hPa | 0 mm | - | - | - |
| 1777188001 | 8.89° C | 75% | 1025.4 hPa | 0 mm | - | - | - |
| 1777187401 | 8.33° C | 77% | 1025.3 hPa | 0 mm | - | - | - |
| 1777186804 | 8.33° C | 78% | 1025.4 hPa | 0 mm | - | - | - |
| 1777186204 | 7.78° C | 78% | 1025.3 hPa | 0 mm | - | - | - |
| 1777185604 | 7.22° C | 79% | 1025.3 hPa | 0 mm | - | - | - |
| 1777185005 | 6.67° C | 79% | 1025.2 hPa | 0 mm | - | - | - |
| 1777184401 | 6.11° C | 79% | 1025.3 hPa | 0 mm | - | - | - |
| 1777183801 | 5.56° C | 78% | 1025.1 hPa | 0 mm | - | - | - |
* Rain latest hour (hover to see other rain measurements)
** Current wind speed in m/s (hover to see current wind gust speed)